Alturas, CA

4:06 PM PST on February 27, 2017 (GMT -0800)
Alturas Municipal

Weather History for KAAT - July, 2014

Change the Weather History Date:

Thursday, July 17, 2014

  Actual Average Record
Temperature  
Mean Temperature 82 °F 67 °F  
Max Temperature 96 °F 89 °F 101 °F (1998)
Min Temperature 68 °F 45 °F 31 °F (1993)
Degree Days  
Heating Degree Days 0 1  
Month to date heating degree days 0 27  
Since 1 June heating degree days 89 207  
Since 1 July heating degree days 0 27  
Cooling Degree Days 17 3  
Month to date cooling degree days 174 37  
Year to date cooling degree days 194 48  
Since 1 June cooling degree days 194 48  
Growing Degree Days 32 (Base 50)    
Moisture  
Dew Point 49 °F    
Average Humidity 34    
Maximum Humidity 51    
Minimum Humidity 17    
Precipitation  
Precipitation T in 0.01 in 0.42 in (1976)
Month to date precipitation 0.36 0.13  
Year to date precipitation 5.77 8.57  
Sea Level Pressure  
Sea Level Pressure 29.89 in    
Wind  
Wind Speed 8 mph (WSW)    
Max Wind Speed 18 mph    
Max Gust Speed 24 mph    
Visibility 10 miles    
Events Rain    
T = Trace of Precipitation, MM = Missing Value Source: NWS Daily Summary

Daily Weather History Graph

Daily Weather History Graph

Search for Another Location

Airport or City:

Trip Planner

Search our weather history database for the weather conditions in past years. The results will help you decide how hot, cold, wet, or windy it might be!

Date:

Astronomy

Jul. 17, 2014 Rise Set
Actual Time 5:43 AM PDT 8:33 PM PDT
Civil Twilight 5:10 AM PDT 9:05 PM PDT
Nautical Twilight 4:29 AM PDT 9:46 PM PDT
Astronomical Twilight 3:41 AM PDT 10:34 PM PDT
Moon 11:50 PM PDT (7/17) 12:05 PM PDT (7/17)
Length of Visible Light 15h 55m
Length of Day
14h 49m
Waning Gibbous, 64% of the Moon is Illuminated
Jul 17
Waning Gibbous
Jul 18
Last Quarter
Jul 26
New
Aug 3
First Quarter
Aug 10
Full

Hourly Weather History & Observations

Time (PDT) Temp. Dew Point Humidity Pressure Visibility Wind Dir Wind Speed Gust Speed Precip Events Conditions
12:55 AM 79.0 °F 51.1 °F 38% 29.89 in 10.0 mi NW 5.8 mph - N/A   Clear
1:55 AM 77.0 °F 52.0 °F 42% 29.89 in 10.0 mi West 8.1 mph - N/A   Clear
2:55 AM 75.0 °F 52.0 °F 44% 29.90 in 10.0 mi West 5.8 mph - N/A   Clear
3:55 AM 75.0 °F 52.0 °F 44% 29.91 in 10.0 mi NNW 6.9 mph - N/A   Clear
4:55 AM 73.9 °F 53.1 °F 48% 29.92 in 10.0 mi North 8.1 mph - N/A   Partly Cloudy
5:55 AM 73.0 °F 52.0 °F 48% 29.93 in 10.0 mi East 4.6 mph - N/A   Mostly Cloudy
6:55 AM 70.0 °F 50.0 °F 49% 29.95 in 10.0 mi West 6.9 mph - N/A   Mostly Cloudy
7:55 AM 72.0 °F 52.0 °F 49% 29.93 in 10.0 mi NE 11.5 mph - N/A   Scattered Clouds
8:55 AM 71.1 °F 53.1 °F 53% 29.96 in 10.0 mi Calm Calm - 0.00 in Rain Light Rain
9:55 AM 69.1 °F 57.9 °F 68% 29.97 in 10.0 mi ESE 5.8 mph - 0.00 in   Overcast
10:55 AM 75.9 °F 53.1 °F 45% 29.95 in 10.0 mi SSE 6.9 mph - N/A   Clear
11:55 AM 82.0 °F 50.0 °F 33% 29.93 in 10.0 mi SE 4.6 mph - N/A   Clear
12:55 PM 82.9 °F 48.9 °F 31% 29.91 in 10.0 mi South 5.8 mph - N/A   Clear
1:55 PM 88.0 °F 48.9 °F 26% 29.87 in 10.0 mi ESE 8.1 mph - N/A   Clear
2:55 PM 90.0 °F 46.9 °F 23% 29.84 in 10.0 mi Variable 5.8 mph - N/A   Clear
3:55 PM 93.9 °F 46.0 °F 19% 29.81 in 10.0 mi WSW 10.4 mph 17.3 mph N/A   Clear
4:55 PM 95.0 °F 45.0 °F 18% 29.80 in 10.0 mi West 16.1 mph 21.9 mph N/A   Partly Cloudy
5:55 PM 90.0 °F 46.0 °F 22% 29.79 in 10.0 mi WSW 13.8 mph - N/A   Clear
6:55 PM 89.1 °F 48.9 °F 25% 29.81 in 10.0 mi West 16.1 mph - N/A   Clear
7:55 PM 87.1 °F 44.1 °F 22% 29.81 in 10.0 mi West 16.1 mph - N/A   Clear
8:55 PM 79.0 °F 46.9 °F 32% 29.85 in 10.0 mi WSW 10.4 mph - N/A   Clear
9:55 PM 79.0 °F 42.1 °F 27% 29.89 in 10.0 mi WSW 8.1 mph - N/A   Clear
10:55 PM 72.0 °F 42.1 °F 34% 29.91 in 10.0 mi Calm Calm - N/A   Clear
11:55 PM 68.0 °F 42.1 °F 39% 29.93 in 10.0 mi West 10.4 mph - N/A   Clear